| time (UTC) | temp F | wind direction | speed MPH | gust MPH | rain 1hr in | rain 24hr in | rain mn in | humidity % | barometer mb |
| 20260503023517 | 58 | 211 | 3.0 | 5.0 | 0.00 | 0.01 | 0.01 | 61 | 1014.7 |
| 20260503023026 | 58 | 211 | 4.0 | 5.0 | 0.00 | 0.01 | 0.01 | 61 | 1014.7 |
| 20260503022509 | 59 | 211 | 3.0 | 4.0 | 0.00 | 0.01 | 0.01 | 62 | 1014.5 |
| 20260503022006 | 59 | 211 | 3.0 | 4.0 | 0.00 | 0.01 | 0.01 | 50 | 1014.6 |
| 20260503021536 | 59 | 211 | 2.0 | 3.0 | 0.00 | 0.01 | 0.01 | 50 | 1014.7 |
| 20260503021007 | 60 | 211 | 2.0 | 4.0 | 0.00 | 0.01 | 0.01 | 52 | 1014.8 |
| 20260503020507 | 60 | 211 | 2.0 | 5.0 | 0.00 | 0.01 | 0.01 | 53 | 1014.7 |
| 20260503020020 | 60 | 211 | 3.0 | 5.0 | 0.00 | 0.01 | 0.01 | 55 | 1014.7 |
| 20260503015513 | 60 | 211 | 4.0 | 5.0 | 0.00 | 0.01 | 0.01 | 58 | 1014.9 |
| 20260503015006 | 60 | 211 | 4.0 | 5.0 | 0.00 | 0.01 | 0.01 | 56 | 1015.0 |
| 20260503014523 | 61 | 211 | 2.0 | 4.0 | 0.00 | 0.01 | 0.01 | 59 | 1015.1 |
| 20260503014008 | 61 | 211 | 2.0 | 5.0 | 0.00 | 0.01 | 0.01 | 54 | 1015.2 |
| 20260503013512 | 61 | 211 | 3.0 | 5.0 | 0.00 | 0.01 | 0.01 | 52 | 1015.2 |
| 20260503013028 | 62 | 211 | 2.0 | 5.0 | 0.00 | 0.01 | 0.01 | 51 | 1015.2 |
| 20260503012511 | 63 | 211 | 3.0 | 4.0 | 0.00 | 0.01 | 0.01 | 54 | 1015.3 |
| 20260503012008 | 63 | 211 | 0.0 | 0.0 | 0.00 | 0.01 | 0.01 | 43 | 1015.2 |
| 20260503011528 | 64 | 211 | 0.0 | 2.0 | 0.00 | 0.01 | 0.01 | 49 | 1015.3 |
| 20260503011010 | 64 | 211 | 0.0 | 3.0 | 0.00 | 0.01 | 0.01 | 55 | 1015.3 |
| 20260503010507 | 64 | 211 | 1.0 | 3.0 | 0.00 | 0.01 | 0.01 | 51 | 1015.3 |
| 20260503010017 | 64 | 211 | 1.0 | 4.0 | 0.00 | 0.01 | 0.01 | 49 | 1015.3 |
| 20260503005507 | 64 | 211 | 2.0 | 4.0 | 0.00 | 0.01 | 0.01 | 41 | 1015.5 |
| 20260503005013 | 65 | 211 | 2.0 | 4.0 | 0.00 | 0.01 | 0.01 | 45 | 1015.5 |
| 20260503004504 | 65 | 211 | 2.0 | 4.0 | 0.00 | 0.01 | 0.01 | 45 | 1015.6 |
| 20260503003503 | 64 | 211 | 3.0 | 5.0 | 0.00 | 0.01 | 0.01 | 44 | 1015.6 |
| 20260503003011 | 64 | 211 | 2.0 | 8.0 | 0.00 | 0.01 | 0.01 | 43 | 1015.6 |
| 20260503002528 | 64 | 211 | 3.0 | 10.0 | 0.00 | 0.01 | 0.01 | 46 | 1015.6 |
| 20260503002004 | 63 | 211 | 8.0 | 10.0 | 0.00 | 0.01 | 0.01 | 45 | 1015.6 |
| 20260503001509 | 63 | 198 | 4.0 | 6.0 | 0.00 | 0.01 | 0.01 | 47 | 1015.7 |
| 20260503001007 | 62 | 198 | 0.0 | 4.0 | 0.00 | 0.01 | 0.01 | 48 | 1015.8 |
| 20260503000508 | 62 | 198 | 1.0 | 4.0 | 0.00 | 0.01 | 0.01 | 49 | 1015.8 |
| 20260503000015 | 62 | 198 | 1.0 | 4.0 | 0.00 | 0.01 | 0.01 | 49 | 1015.9 |
| 20260502235510 | 61 | 198 | 0.0 | 4.0 | 0.00 | 0.01 | 0.01 | 46 | 1015.9 |
| 20260502235008 | 61 | 198 | 2.0 | 5.0 | 0.00 | 0.01 | 0.01 | 45 | 1016.0 |
| 20260502234518 | 61 | 198 | 3.0 | 5.0 | 0.00 | 0.01 | 0.01 | 50 | 1016.0 |
| 20260502234008 | 62 | 198 | 2.0 | 4.0 | 0.00 | 0.01 | 0.01 | 52 | 1016.1 |
| 20260502233543 | 61 | 198 | 2.0 | 4.0 | 0.00 | 0.01 | 0.01 | 53 | 1016.1 |
| 20260502233004 | 60 | 198 | 2.0 | 4.0 | 0.00 | 0.01 | 0.01 | 52 | 1016.1 |
| 20260502232508 | 60 | 198 | 2.0 | 7.0 | 0.00 | 0.01 | 0.01 | 57 | 1016.2 |
| 20260502232005 | 59 | 198 | 4.0 | 8.0 | 0.00 | 0.01 | 0.01 | 53 | 1016.3 |
| 20260502231514 | 59 | 198 | 6.0 | 14.0 | 0.00 | 0.01 | 0.01 | 59 | 1016.3 |
| 20260502231004 | 59 | 198 | 7.0 | 14.0 | 0.00 | 0.01 | 0.01 | 57 | 1016.4 |
| 20260502230507 | 58 | 198 | 11.0 | 14.0 | 0.00 | 0.01 | 0.01 | 56 | 1016.6 |
| 20260502230011 | 58 | 192 | 10.0 | 15.0 | 0.00 | 0.01 | 0.01 | 58 | 1016.7 |
| 20260502225506 | 58 | 199 | 12.0 | 19.0 | 0.00 | 0.01 | 0.01 | 58 | 1016.7 |
| 20260502225006 | 58 | 212 | 12.0 | 20.0 | 0.00 | 0.01 | 0.01 | 60 | 1016.8 |
| 20260502224521 | 58 | 230 | 16.0 | 20.0 | 0.00 | 0.01 | 0.01 | 60 | 1016.8 |
| 20260502224007 | 58 | 236 | 15.0 | 23.0 | 0.00 | 0.01 | 0.01 | 63 | 1017.0 |
| 20260502223508 | 58 | 252 | 17.0 | 24.0 | 0.00 | 0.01 | 0.01 | 61 | 1017.1 |
| 20260502223040 | 59 | 247 | 19.0 | 24.0 | 0.00 | 0.01 | 0.01 | 59 | 1017.2 |
| 20260502222512 | 60 | 241 | 14.0 | 21.0 | 0.00 | 0.01 | 0.01 | 55 | 1017.1 |
| 20260502222011 | 60 | 238 | 16.0 | 21.0 | 0.00 | 0.01 | 0.01 | 55 | 1017.1 |
| 20260502221522 | 61 | 241 | 17.0 | 21.0 | 0.00 | 0.01 | 0.01 | 54 | 1017.1 |
| 20260502221004 | 62 | 249 | 7.0 | 14.0 | 0.00 | 0.01 | 0.01 | 49 | 1017.2 |
| 20260502220504 | 61 | 13 | 3.0 | 7.0 | 0.00 | 0.01 | 0.01 | 49 | 1017.2 |
| 20260502220009 | 61 | 13 | 3.0 | 7.0 | 0.00 | 0.01 | 0.01 | 47 | 1017.3 |
| 20260502215507 | 61 | 13 | 4.0 | 7.0 | 0.00 | 0.01 | 0.01 | 51 | 1017.3 |
| 20260502215003 | 61 | 13 | 3.0 | 7.0 | 0.00 | 0.01 | 0.01 | 46 | 1017.5 |
| 20260502214513 | 61 | 13 | 4.0 | 7.0 | 0.00 | 0.01 | 0.01 | 55 | 1017.6 |
| 20260502214009 | 61 | 13 | 3.0 | 5.0 | 0.00 | 0.01 | 0.01 | 49 | 1017.7 |
| 20260502213514 | 61 | 13 | 3.0 | 5.0 | 0.00 | 0.01 | 0.01 | 50 | 1017.8 |
| 20260502213017 | 61 | 13 | 2.0 | 5.0 | 0.00 | 0.01 | 0.01 | 52 | 1017.8 |
| 20260502212508 | 60 | 13 | 3.0 | 6.0 | 0.00 | 0.01 | 0.01 | 53 | 1017.8 |
| 20260502212010 | 60 | 13 | 3.0 | 9.0 | 0.00 | 0.01 | 0.01 | 54 | 1017.9 |
| 20260502211522 | 60 | 13 | 5.0 | 9.0 | 0.00 | 0.01 | 0.01 | 53 | 1018.0 |
| 20260502211009 | 60 | 13 | 8.0 | 9.0 | 0.00 | 0.01 | 0.01 | 58 | 1018.0 |
| 20260502210508 | 61 | 336 | 6.0 | 8.0 | 0.00 | 0.01 | 0.01 | 56 | 1018.0 |
| 20260502210024 | 62 | 335 | 3.0 | 9.0 | 0.00 | 0.01 | 0.01 | 47 | 1018.0 |
| 20260502205506 | 62 | 335 | 4.0 | 9.0 | 0.00 | 0.01 | 0.01 | 45 | 1018.0 |
| 20260502205004 | 62 | 280 | 7.0 | 8.0 | 0.00 | 0.01 | 0.01 | 47 | 1018.1 |
| 20260502204512 | 62 | 280 | 5.0 | 8.0 | 0.00 | 0.01 | 0.01 | 50 | 1018.2 |
| 20260502204007 | 62 | 280 | 6.0 | 9.0 | 0.00 | 0.01 | 0.01 | 47 | 1018.3 |
| 20260502203508 | 63 | 280 | 6.0 | 9.0 | 0.00 | 0.01 | 0.01 | 48 | 1018.3 |
| 20260502203036 | 62 | 280 | 6.0 | 9.0 | 0.00 | 0.01 | 0.01 | 47 | 1018.5 |
| 20260502202507 | 62 | 280 | 5.0 | 7.0 | 0.00 | 0.01 | 0.01 | 47 | 1018.6 |
| 20260502202010 | 62 | 280 | 5.0 | 7.0 | 0.00 | 0.01 | 0.01 | 48 | 1018.6 |
| 20260502201527 | 62 | 280 | 4.0 | 8.0 | 0.00 | 0.01 | 0.01 | 48 | 1018.7 |
| 20260502201010 | 62 | 280 | 5.0 | 8.0 | 0.00 | 0.01 | 0.01 | 46 | 1018.9 |
| 20260502200509 | 62 | 280 | 4.0 | 7.0 | 0.00 | 0.01 | 0.01 | 49 | 1018.9 |
| 20260502200040 | 62 | 280 | 3.0 | 7.0 | 0.00 | 0.01 | 0.01 | 46 | 1019.0 |
| 20260502195509 | 62 | 280 | 4.0 | 9.0 | 0.00 | 0.01 | 0.01 | 48 | 1019.0 |
| 20260502195009 | 62 | 280 | 4.0 | 9.0 | 0.00 | 0.01 | 0.01 | 48 | 1019.1 |
| 20260502194524 | 61 | 280 | 5.0 | 7.0 | 0.00 | 0.01 | 0.01 | 50 | 1019.2 |
| 20260502194019 | 61 | 280 | 5.0 | 8.0 | 0.00 | 0.01 | 0.01 | 49 | 1019.2 |
| 20260502193504 | 61 | 280 | 6.0 | 8.0 | 0.00 | 0.01 | 0.01 | 48 | 1019.3 |
| 20260502193020 | 61 | 280 | 5.0 | 8.0 | 0.00 | 0.01 | 0.01 | 46 | 1019.3 |
| 20260502192505 | 61 | 280 | 5.0 | 8.0 | 0.00 | 0.01 | 0.01 | 49 | 1019.4 |
| 20260502192009 | 61 | 280 | 6.0 | 8.0 | 0.00 | 0.01 | 0.01 | 47 | 1019.4 |
| 20260502191515 | 60 | 280 | 6.0 | 8.0 | 0.00 | 0.01 | 0.01 | 51 | 1019.6 |
| 20260502191008 | 60 | 280 | 4.0 | 7.0 | 0.00 | 0.01 | 0.01 | 49 | 1019.7 |
| 20260502190508 | 60 | 280 | 4.0 | 6.0 | 0.00 | 0.01 | 0.01 | 52 | 1019.7 |
| 20260502190021 | 61 | 280 | 3.0 | 6.0 | 0.00 | 0.01 | 0.01 | 49 | 1019.8 |
| 20260502185508 | 60 | 280 | 3.0 | 6.0 | 0.00 | 0.01 | 0.01 | 48 | 1019.9 |
| 20260502185011 | 60 | 280 | 3.0 | 6.0 | 0.00 | 0.01 | 0.01 | 47 | 1020.0 |
| 20260502184524 | 61 | 280 | 3.0 | 7.0 | 0.00 | 0.01 | 0.01 | 50 | 1020.1 |
| 20260502184008 | 60 | 280 | 5.0 | 7.0 | 0.00 | 0.01 | 0.01 | 51 | 1020.1 |
| 20260502183510 | 59 | 280 | 6.0 | 7.0 | 0.00 | 0.01 | 0.01 | 50 | 1020.2 |
| 20260502183029 | 59 | 280 | 5.0 | 7.0 | 0.00 | 0.01 | 0.01 | 57 | 1020.3 |
| 20260502182514 | 58 | 280 | 5.0 | 7.0 | 0.00 | 0.01 | 0.01 | 59 | 1020.3 |
| 20260502182007 | 59 | 280 | 4.0 | 6.0 | 0.00 | 0.01 | 0.01 | 53 | 1020.3 |
| 20260502181519 | 60 | 280 | 4.0 | 6.0 | 0.00 | 0.01 | 0.01 | 56 | 1020.3 |
| 20260502181006 | 60 | 280 | 3.0 | 4.0 | 0.00 | 0.01 | 0.01 | 52 | 1020.3 |
| 20260502180504 | 60 | 280 | 2.0 | 3.0 | 0.00 | 0.01 | 0.01 | 54 | 1020.5 |
| 20260502170505 | 55 | 285 | 5.0 | 7.0 | 0.00 | 0.01 | 0.01 | 65 | 1020.8 |
| 20260502164009 | 58 | 308 | 4.0 | 10.0 | 0.00 | 0.01 | 0.01 | 49 | 1020.8 |
| 20260502163509 | 58 | 308 | 8.0 | 10.0 | 0.00 | 0.01 | 0.01 | 51 | 1020.9 |
| 20260502163026 | 58 | 305 | 1.0 | 8.0 | 0.00 | 0.01 | 0.01 | 52 | 1020.9 |
| 20260502162510 | 58 | 305 | 4.0 | 8.0 | 0.00 | 0.01 | 0.01 | 51 | 1020.9 |
| 20260502162011 | 57 | 305 | 3.0 | 7.0 | 0.00 | 0.01 | 0.01 | 51 | 1020.9 |
| 20260502161006 | 56 | 305 | 1.0 | 9.0 | 0.00 | 0.01 | 0.01 | 59 | 1021.0 |
| 20260502160514 | 56 | 305 | 2.0 | 8.0 | 0.00 | 0.01 | 0.01 | 54 | 1021.1 |
| 20260502152012 | 52 | 290 | 6.0 | 9.0 | 0.00 | 0.01 | 0.01 | 69 | 1021.1 |
| 20260502151524 | 52 | 289 | 6.0 | 9.0 | 0.00 | 0.01 | 0.01 | 71 | 1021.0 |
| 20260502151003 | 51 | 286 | 6.0 | 9.0 | 0.00 | 0.01 | 0.01 | 73 | 1021.0 |
| 20260502150507 | 51 | 286 | 5.0 | 7.0 | 0.00 | 0.01 | 0.01 | 73 | 1021.0 |
| 20260502130509 | 45 | 315 | 4.0 | 6.0 | 0.00 | 0.01 | 0.01 | 88 | 1020.6 |
| 20260502123514 | 45 | 315 | 6.0 | 8.0 | 0.00 | 0.01 | 0.01 | 88 | 1020.5 |
| 20260502123012 | 44 | 315 | 6.0 | 8.0 | 0.00 | 0.01 | 0.01 | 87 | 1020.5 |
| 20260502122506 | 44 | 315 | 5.0 | 6.0 | 0.00 | 0.01 | 0.01 | 86 | 1020.6 |
| 20260502122006 | 44 | 315 | 4.0 | 6.0 | 0.00 | 0.01 | 0.01 | 85 | 1020.6 |
| 20260502121514 | 45 | 315 | 4.0 | 5.0 | 0.00 | 0.01 | 0.01 | 85 | 1020.6 |
| 20260502121006 | 45 | 315 | 4.0 | 5.0 | 0.00 | 0.01 | 0.01 | 85 | 1020.6 |
| 20260502120525 | 45 | 315 | 3.0 | 6.0 | 0.00 | 0.01 | 0.01 | 84 | 1020.6 |
| 20260502115510 | 46 | 315 | 5.0 | 8.0 | 0.00 | 0.01 | 0.01 | 84 | 1020.8 |
| 20260502115022 | 46 | 315 | 5.0 | 8.0 | 0.00 | 0.01 | 0.01 | 84 | 1020.7 |
| 20260502114522 | 46 | 315 | 6.0 | 8.0 | 0.00 | 0.01 | 0.01 | 85 | 1020.8 |
| 20260502114007 | 46 | 315 | 5.0 | 8.0 | 0.01 | 0.01 | 0.01 | 85 | 1020.7 |
| 20260502113503 | 47 | 315 | 4.0 | 6.0 | 0.01 | 0.01 | 0.01 | 85 | 1020.8 |
| 20260502113009 | 47 | 315 | 4.0 | 6.0 | 0.01 | 0.01 | 0.01 | 85 | 1020.7 |
| 20260502112504 | 47 | 315 | 4.0 | 6.0 | 0.01 | 0.01 | 0.01 | 85 | 1020.8 |
| 20260502112009 | 47 | 315 | 4.0 | 6.0 | 0.01 | 0.01 | 0.01 | 84 | 1020.8 |
| 20260502111516 | 47 | 315 | 5.0 | 6.0 | 0.01 | 0.01 | 0.01 | 84 | 1020.7 |
| 20260502111007 | 47 | 315 | 4.0 | 8.0 | 0.01 | 0.01 | 0.01 | 82 | 1020.7 |
| 20260502110510 | 47 | 315 | 4.0 | 8.0 | 0.01 | 0.01 | 0.01 | 82 | 1020.7 |
| 20260502110016 | 47 | 316 | 4.0 | 8.0 | 0.01 | 0.01 | 0.01 | 82 | 1020.7 |
| 20260502105523 | 46 | 316 | 5.0 | 8.0 | 0.01 | 0.01 | 0.01 | 81 | 1020.7 |
| 20260502105010 | 46 | 319 | 6.0 | 9.0 | 0.01 | 0.01 | 0.01 | 80 | 1020.7 |
| 20260502104519 | 46 | 321 | 4.0 | 9.0 | 0.01 | 0.01 | 0.01 | 79 | 1020.7 |
| 20260502104013 | 46 | 321 | 5.0 | 8.0 | 0.00 | 0.00 | 0.00 | 77 | 1020.8 |
| 20260502103506 | 46 | 321 | 4.0 | 6.0 | 0.00 | 0.00 | 0.00 | 76 | 1020.6 |
| 20260502103053 | 45 | 321 | 3.0 | 5.0 | 0.00 | 0.00 | 0.00 | 76 | 1020.6 |
| 20260502102520 | 45 | 321 | 4.0 | 5.0 | 0.00 | 0.00 | 0.00 | 76 | 1020.7 |
| 20260502102010 | 45 | 321 | 4.0 | 6.0 | 0.00 | 0.00 | 0.00 | 78 | 1020.6 |
| 20260502101508 | 44 | 321 | 4.0 | 6.0 | 0.00 | 0.00 | 0.00 | 78 | 1020.6 |
| 20260502101004 | 44 | 321 | 4.0 | 6.0 | 0.00 | 0.00 | 0.00 | 76 | 1020.5 |
| 20260502100507 | 44 | 321 | 5.0 | 6.0 | 0.00 | 0.00 | 0.00 | 77 | 1020.5 |
| 20260502091526 | 46 | 319 | 5.0 | 8.0 | 0.00 | 0.00 | 0.00 | 71 | 1020.1 |
| 20260502091016 | 47 | 319 | 6.0 | 10.0 | 0.00 | 0.00 | 0.00 | 70 | 1020.1 |
| 20260502090507 | 47 | 319 | 7.0 | 10.0 | 0.00 | 0.00 | 0.00 | 69 | 1020.2 |
| 20260502071521 | 51 | 322 | 11.0 | 14.0 | 0.00 | 0.00 | 0.00 | 62 | 1019.3 |
| 20260502071010 | 51 | 327 | 11.0 | 13.0 | 0.00 | 0.00 | 0.00 | 61 | 1019.1 |
| 20260502070510 | 51 | 326 | 9.0 | 12.0 | 0.00 | 0.00 | 0.00 | 61 | 1019.0 |
| 20260502070022 | 52 | 338 | 9.0 | 15.0 | 0.00 | 0.00 | 0.00 | 60 | 1018.9 |
| 20260502065508 | 52 | 349 | 9.0 | 15.0 | 0.00 | 0.00 | 0.00 | 59 | 1018.7 |
| 20260502065014 | 52 | 360 | 9.0 | 15.0 | 0.00 | 0.00 | 0.00 | 59 | 1018.5 |
| 20260502064526 | 52 | 11 | 10.0 | 15.0 | 0.00 | 0.00 | 0.00 | 59 | 1018.5 |
| 20260502064015 | 52 | 5 | 10.0 | 16.0 | 0.00 | 0.00 | 0.00 | 59 | 1018.3 |
| 20260502063510 | 52 | 360 | 11.0 | 16.0 | 0.00 | 0.00 | 0.00 | 59 | 1018.1 |
| 20260502063028 | 52 | 13 | 11.0 | 15.0 | 0.00 | 0.00 | 0.00 | 59 | 1018.0 |
| 20260502062541 | 52 | 5 | 10.0 | 17.0 | 0.00 | 0.00 | 0.00 | 59 | 1018.0 |
| 20260502062010 | 52 | 347 | 12.0 | 17.0 | 0.00 | 0.00 | 0.00 | 58 | 1017.9 |
| 20260502061516 | 53 | 5 | 12.0 | 19.0 | 0.00 | 0.00 | 0.00 | 57 | 1017.8 |
| 20260502061041 | 53 | 360 | 11.0 | 23.0 | 0.00 | 0.00 | 0.00 | 56 | 1017.6 |
| 20260502060507 | 54 | 10 | 16.0 | 23.0 | 0.00 | 0.00 | 0.00 | 55 | 1017.5 |
| 20260502060023 | 54 | 5 | 13.0 | 22.0 | 0.00 | 0.00 | 0.00 | 54 | 1017.4 |
| 20260502055510 | 54 | 18 | 15.0 | 22.0 | 0.00 | 0.00 | 0.00 | 53 | 1017.2 |
| 20260502055008 | 55 | 19 | 16.0 | 26.0 | 0.00 | 0.00 | 0.00 | 52 | 1017.1 |
| 20260502054534 | 55 | 27 | 15.0 | 26.0 | 0.00 | 0.00 | 0.00 | 51 | 1017.1 |
| 20260502054002 | 56 | 24 | 15.0 | 25.0 | 0.00 | 0.00 | 0.00 | 51 | 1017.0 |
| 20260502053504 | 56 | 20 | 18.0 | 25.0 | 0.00 | 0.00 | 0.00 | 50 | 1016.9 |
| 20260502053004 | 56 | 21 | 18.0 | 25.0 | 0.00 | 0.00 | 0.00 | 50 | 1016.8 |
| 20260502052504 | 56 | 15 | 16.0 | 24.0 | 0.00 | 0.00 | 0.00 | 50 | 1016.7 |
| 20260502052004 | 56 | 18 | 17.0 | 25.0 | 0.00 | 0.00 | 0.00 | 49 | 1016.6 |
| 20260502051503 | 57 | 9 | 18.0 | 28.0 | 0.00 | 0.00 | 0.00 | 48 | 1016.6 |
| 20260502051003 | 57 | 19 | 18.0 | 28.0 | 0.00 | 0.00 | 0.00 | 48 | 1016.4 |
| 20260502050504 | 57 | 10 | 18.0 | 24.0 | 0.00 | 0.00 | 0.00 | 49 | 1016.3 |
| 20260502050004 | 57 | 21 | 17.0 | 29.0 | 0.00 | 0.00 | 0.00 | 49 | 1016.2 |
| 20260502045504 | 58 | 41 | 18.0 | 29.0 | 0.00 | 0.00 | 0.00 | 50 | 1016.1 |
| 20260502045004 | 58 | 46 | 19.0 | 26.0 | 0.00 | 0.00 | 0.00 | 50 | 1016.1 |
| 20260502044505 | 58 | 36 | 19.0 | 26.0 | 0.00 | 0.00 | 0.00 | 50 | 1016.0 |
| 20260502044005 | 58 | 32 | 18.0 | 24.0 | 0.00 | 0.00 | 0.00 | 49 | 1015.9 |
| 20260502043506 | 58 | 23 | 15.0 | 21.0 | 0.00 | 0.00 | 0.00 | 49 | 1015.8 |
| 20260502043004 | 57 | 12 | 13.0 | 18.0 | 0.00 | 0.00 | 0.00 | 48 | 1015.8 |
| 20260502042504 | 56 | 360 | 12.0 | 16.0 | 0.00 | 0.00 | 0.00 | 47 | 1015.9 |
| 20260502042004 | 54 | 355 | 9.0 | 15.0 | 0.00 | 0.00 | 0.00 | 46 | 1015.8 |
| 20260502041549 | 54 | 355 | 11.0 | 15.0 | 0.00 | 0.00 | 0.00 | 45 | 1015.8 |
| 20260502041004 | 55 | 355 | 9.0 | 12.0 | 0.00 | 0.00 | 0.00 | 43 | 1015.7 |
| 20260502040504 | 55 | 355 | 9.0 | 12.0 | 0.00 | 0.00 | 0.00 | 42 | 1015.5 |
| 20260502040007 | 56 | 355 | 9.0 | 11.0 | 0.00 | 0.00 | 0.00 | 41 | 1015.3 |
| 20260502035503 | 57 | 355 | 8.0 | 14.0 | 0.00 | 0.00 | 0.00 | 39 | 1015.5 |
| 20260502035004 | 58 | 355 | 9.0 | 14.0 | 0.00 | 0.00 | 0.00 | 38 | 1015.3 |
| 20260502034509 | 58 | 355 | 10.0 | 14.0 | 0.00 | 0.00 | 0.00 | 37 | 1015.4 |
| 20260502034010 | 59 | 355 | 9.0 | 14.0 | 0.00 | 0.00 | 0.00 | 37 | 1015.3 |
| 20260502033504 | 58 | 355 | 10.0 | 13.0 | 0.00 | 0.00 | 0.00 | 37 | 1015.2 |
| 20260502033008 | 58 | 355 | 8.0 | 10.0 | 0.00 | 0.00 | 0.00 | 37 | 1015.1 |
| 20260502032504 | 59 | 355 | 7.0 | 10.0 | 0.00 | 0.00 | 0.00 | 36 | 1014.9 |
| 20260502032004 | 59 | 355 | 7.0 | 10.0 | 0.00 | 0.00 | 0.00 | 36 | 1014.9 |
| 20260502031508 | 60 | 355 | 7.0 | 12.0 | 0.00 | 0.00 | 0.00 | 35 | 1014.8 |
| 20260502031006 | 61 | 355 | 7.0 | 12.0 | 0.00 | 0.00 | 0.00 | 34 | 1014.7 |
| 20260502030504 | 62 | 355 | 9.0 | 12.0 | 0.00 | 0.00 | 0.00 | 34 | 1014.7 |
| 20260502030008 | 62 | 355 | 9.0 | 13.0 | 0.00 | 0.00 | 0.00 | 33 | 1014.7 |
| 20260502025502 | 63 | 355 | 9.0 | 15.0 | 0.00 | 0.00 | 0.00 | 32 | 1014.7 |
| 20260502025003 | 63 | 355 | 10.0 | 16.0 | 0.00 | 0.00 | 0.00 | 32 | 1014.5 |
| 20260502024504 | 64 | 355 | 11.0 | 16.0 | 0.00 | 0.00 | 0.00 | 31 | 1014.5 |
| 20260502024005 | 64 | 355 | 12.0 | 18.0 | 0.00 | 0.00 | 0.00 | 30 | 1014.4 |